[Iaude] MPEC N72: 2024 NK1 [a=1.92,e=0.50,i=14.8,H=23.4]
    mpec at cfa.harvard.edu 
    mpec at cfa.harvard.edu
       
    Sat Jul  6 03:07:57 EDT 2024
    
    
  
M.P.E.C. 2024-N72                                  Issued 2024 July 6, 07:06 UT
     The Minor Planet Electronic Circulars contain information on unusual
         minor planets, routine data on comets and natural satellites,
         and occasional editorial announcements.  They are published
    on behalf of Division F of the International Astronomical Union by the
          Minor Planet Center, Smithsonian Astrophysical Observatory,
                          Cambridge, MA 02138, U.S.A.
			  
             Prepared using the Tamkin Foundation Computer Network
                              MPC at CFA.HARVARD.EDU
            URL https://www.minorplanetcenter.net/    ISSN 1523-6714
                                    2024 NK1                                    
Observations:
     K24N01K* C2024 07 01.44413121 01 46.719+15 15 47.18         22.03wXEN072F51
     K24N01K  C2024 07 01.45521321 01 44.906+15 16 00.41         22.58wXEN072F51
     K24N01K  C2024 07 01.46629921 01 43.078+15 16 13.56         22.41wXEN072F51
     K24N01K  C2024 07 01.47737621 01 41.252+15 16 26.30         22.23wXEN072F51
     K24N01K  C2024 07 01.56895221 01 26.057+15 18 10.80               VEN072F52
     K24N01K DC2024 07 02.28748 20 59 38.45 +15 31 12.1                VEN072695
     K24N01K DC2024 07 02.29177 20 59 37.77 +15 31 16.6          22.4 GVEN072695
     K24N01K DC2024 07 02.29606 20 59 37.08 +15 31 21.4          22.0 GVEN072695
     K24N01K 3C2024 07 04.57680520 53 54.329+16 07 52.31         22.56GVEN072T14
     K24N01K 3C2024 07 04.57778720 53 54.182+16 07 53.11         22.78GVEN072T14
     K24N01K 3C2024 07 04.57876820 53 54.018+16 07 53.93         22.90GVEN072T14
     K24N01K KC2024 07 06.26186920 49 50.13 +16 29 38.6          22.8 GVEN072H21
     K24N01K KC2024 07 06.26475920 49 49.69 +16 29 40.3          22.8 GVEN072H21
     K24N01K KC2024 07 06.27053720 49 48.80 +16 29 44.6          23.0 GVEN072H21
     K24N01K KC2024 07 06.27400220 49 48.27 +16 29 47.3          22.4 GVEN072H21
Observer details:
695 Kitt Peak.  Observer M. J. Brucker.  2.3-m f/9 reflector + CCD.
F51 Pan-STARRS 1, Haleakala.  Observers J. Herman, T. Lowe, P. Minguez, A.
    Schultz, I. Smith.  Measurers K. Chambers, T. de Boer, J. Fairlamb, H.
    Gao, M. Huber, C.-C. Lin, E. Magnier, Y. Ramanjooloo, R. Wainscoat, R.
    Weryk.  1.8-m Ritchey-Chretien + CCD.
F52 Pan-STARRS 2, Haleakala.  Observers J. Herman, T. Lowe, P. Minguez, A.
    Schultz, I. Smith.  Measurers K. Chambers, T. de Boer, J. Fairlamb, H.
    Gao, M. Huber, C.-C. Lin, E. Magnier, Y. Ramanjooloo, R. Wainscoat, R.
    Weryk.  1.8-m Ritchey-Chretien + CCD.
H21 Astronomical Research Observatory, Westfield.  Observer R. Holmes.
    Measurers T. Linder, R. Holmes, L. Horn.  1.3-m f/4.0 astrograph + CCD.
T14 Canada-France-Hawaii Telescope, Maunakea.  Observers R. Wainscoat, H.
    Januszewski, V. Khatu.  Measurers R. Weryk, R. Wainscoat.  3.6-m f/4.1
    reflector + CCD.
Orbital elements:
2024 NK1                                                 Earth MOID = 0.0206 AU
Epoch 2024 Mar. 31.0 TT = JDT 2460400.5                 MPC                     
M 348.95336              (2000.0)            P               Q                  
n   0.36941423     Peri.  319.70108     -0.73894272     +0.62467338             
a   1.9236541      Node   260.81899     -0.53345093     -0.77132770             
e   0.5008319      Incl.   14.81849     -0.41157473     -0.12180624             
P   2.67           H   23.41          G   0.15           U   8                  
Residuals in seconds of arc
240701 F51  0.0   0.4-    240702 695  0.1-  0.2+    240704 T14  0.0   0.1-
240701 F51  0.1+  0.1-    240702 695  0.0   0.0     240706 H21  0.0   0.2+
240701 F51  0.0   0.1+    240702 695  0.1-  0.1+    240706 H21  0.0   0.2-
240701 F51  0.0   0.0     240704 T14  0.0   0.1-    240706 H21  0.0   0.0
240701 F52  0.8-  0.1+    240704 T14  0.1+  0.1-    240706 H21  0.0   0.2+
Ephemeris:
2024 NK1                 a,e,i = 1.92, 0.50, 15                  q = 0.9602
Date    TT    R. A. (2000) Decl.     Delta      r    Elong.  Phase     V
2024 06 06    22 17 20.2 -03 49 02   0.1769  1.0616   100.6    70.0    22.2
...
2024 06 21    21 29 50.2 +10 20 33   0.2339  1.1461   118.4    51.3    22.4
...
2024 06 29    21 08 04.5 +14 24 20   0.2702  1.1970   126.5    43.1    22.6
...
2024 07 05    20 52 53.0 +16 13 48   0.3000  1.2370   131.8    37.8    22.8
2024 07 06    20 50 27.4 +16 26 41   0.3052  1.2438   132.6    37.0    22.8
2024 07 07    20 48 04.0 +16 38 09   0.3105  1.2506   133.4    36.2    22.8
...
2024 07 13    20 34 32.2 +17 19 42   0.3440  1.2921   137.8    31.9    23.0
...
2024 07 21    20 19 03.9 +17 14 30   0.3938  1.3485   142.0    27.6    23.3
...
2024 08 05    19 59 11.1 +15 03 14   0.5053  1.4559   144.5    23.8    23.9
A. U. Tomatic                (C) Copyright 2024 MPC           M.P.E.C. 2024-N72
    
    
More information about the Iaude
mailing list